Overview Statistics Trail Chart Weather Telemetry Raw packets
 

This is the latest recevied weather packets stored in our database for station/object N7ZEF. If no packets are shown the sender has not sent any weather packets the latest 10 day(s).

<< 13 14 15 16 17 18 19 >>
Time Temp. Humidity Pressure Rain* Wind** Luminosity Snow
1777959327 6.11° C 87% 1012.3 hPa 0 mm - - -
1777958726 6.67° C 85% 1012.3 hPa 0 mm - - -
1777958125 6.67° C 81% 1012.3 hPa 0 mm - - -
1777957523 7.22° C 81% 1012.3 hPa 0 mm - - -
1777956922 7.22° C 80% 1012.2 hPa 0 mm - - -
1777956320 7.22° C 80% 1012.2 hPa 0 mm - - -
1777955719 7.22° C 79% 1012.2 hPa 0 mm - - -
1777955118 7.22° C 78% 1012.1 hPa 0 mm - - -
1777954516 7.78° C 76% 1012.1 hPa 0 mm - - -
1777953915 8.33° C 75% 1011.7 hPa 0 mm - - -
1777953313 8.33° C 78% 1011.6 hPa 0 mm - - -
1777952712 8.33° C 82% 1011.3 hPa 0 mm - - -
1777952111 8.33° C 81% 1010.9 hPa 0 mm - - -
1777951509 8.89° C 80% 1010.4 hPa 0 mm - - -
1777950908 8.89° C 77% 1010.5 hPa 0 mm - - -
1777950306 9.44° C 75% 1010.4 hPa 0 mm - - -
1777949700 9.44° C 72% 1010.3 hPa 0 mm - - -
1777949099 9.44° C 69% 1009.9 hPa 0 mm - - -
1777948497 9.44° C 66% 1009.7 hPa 0 mm - - -
1777947896 10° C 64% 1009.5 hPa 0 mm - - -
1777947294 10.56° C 64% 1009.4 hPa 0 mm - - -
1777946693 10.56° C 62% 1009.5 hPa 0 mm - - -
1777946092 10.56° C 63% 1009.4 hPa 0 mm - - -
1777945490 11.11° C 62% 1009.5 hPa 0 mm - - -
1777944889 11.11° C 60% 1009.5 hPa 0 mm - - -

* Rain latest hour (hover to see other rain measurements)
** Current wind speed in m/s (hover to see current wind gust speed)